User: anonymous   Login
Location: Edoum�
(0.9447°N, 10.6482°E)
Time: 04:44:33
(UTC+00:00)
Language:

Iridium 45 - Orbit

View from above orbital plane
View from above orbital plane
View from above satellite
View from above satellite

Ground track
Ground track

The orbit data is extracted from the following two-line orbital elements,

1 25104U 97082A   20330.46829387 +.00002512 +00000-0 +19514-3 0  9996
2 25104 086.3796 099.4269 0212551 194.7851 164.7099 14.84597201203577
Epoch (UTC): 25 November 2020 11:14:20
Eccentricity: 0.0212551
inclination: 86.3796°
perigee height: 466 km
apogee height: 763 km
right ascension of ascending node: 99.4269°
argument of perigee: 194.7851°
revolutions per day: 14.84597201
mean anomaly at epoch: 164.7099°
orbit number at epoch: 20357

The dashed part of the orbit path shows where the satellite is in the earth's shadow,  

DLR